Startpagina
METAR-TAF:

METAR-TAF

Vliegvelden :

Ambato, Ecuador

breedte: 01-12-43S, lengte: 078-34-28W, hoogte: 2591 m

Actueel weer

Dit bericht is 6 uur en het 34 minuten geleden gemaakt, om 21:00 UTC
Wind 6 kt uit het zuiden
Temperatuur 17°C
Vochtigheid 82%
Druk 1025 hPa
Zicht 10 km of meer
Weinig wolken op 2000 ft
Gebroken wolken op 3000 ft

METAR: SEAM 182100Z 18006KT 9999 FEW020 BKN030 17/14 Q1025

Tijdstip: 22:34 (03:34 UTC)


TAF: ontbreekt

Waarnemingen en weersverwachtingen van meer dan 4000 vliegvelden (METAR en TAF).

De beschikbare stations zijn de gele en rode punten op de kaart.

Ga met uw muis naar het station om de naam te zien.

Klik dan om waarnemingen en weersverwachtingen te zien.

kaart wijzigen: klik op de groene knoppen met een zwart kruis om in te zoomen, op de groene knop met een streepje om uit te zoomen of op de groene pijlen voor aangrenzende kaarten.


METAR-TAF: